Volver al catálogo

ANIK B1

TELESAT-4

ActivoComunicacionesGEO
NORAD 11153·PAYLOAD·🇨🇦 Canada

Lanzado Dec 16, 1978 desde Cape Canaveral Space Force Station

Loading…

TLE

ActualizadoSource: Space-Track

Época: Sep 14, 2026, 14:20 UTC

1 11153U 78116A   26257.59737443 -.00000317  00000-0  00000-0 0  9990
2 11153   9.3481 315.5300 0019150 324.9332  40.1753  0.99812330136923

Sigue ANIK B1 en tiempo real con AllMySat

Download on the App Store